When you browse on this site, cookies collect data to enhance your experience and personalize the content and advertising you see.
Visit our Privacy Policy to learn more. By continuing to use the site, you agree to this use of cookies and data.
  • In Lithuania
  • List of Countries
  • For 7 days
  • Water Temperature
  • Satellite Maps
  • Weather Map
  • Weather Widgets
  • user-avatar
    Login

    Hourly Weather Volodyne

    Today, 20 March, Wednesday

    Time Temperature Precipitation Wind Pressure Humidity
    00:00 +5°C° 0 mm 2 mps 755 mmHg 81%
    01:00 +5°C° 0 mm 2 mps 754 mmHg 82%
    02:00 +4°C° 0 mm 2 mps 754 mmHg 83%
    03:00 +4°C° 0 mm 2 mps 754 mmHg 84%
    04:00 +4°C° 0 mm 2 mps 754 mmHg 84%
    05:00 +3°C° 0 mm 2 mps 754 mmHg 85%
    06:00 +3°C° 0 mm 3 mps 754 mmHg 79%
    07:00 +4°C° 0 mm 3 mps 754 mmHg 73%
    08:00 +5°C° 0 mm 3 mps 754 mmHg 67%
    09:00 +8°C° 0 mm 3 mps 754 mmHg 61%
    10:00 +9°C° 0 mm 3 mps 754 mmHg 54%
    11:00 +12°C° 0 mm 2 mps 754 mmHg 47%
    12:00 +13°C° 0 mm 2 mps 754 mmHg 45%
    13:00 +13°C° 0 mm 2 mps 754 mmHg 42%
    14:00 +14°C° 0 mm 1 mps 754 mmHg 39%
    15:00 +14°C° 0 mm 1 mps 754 mmHg 41%
    16:00 +14°C° 0 mm 1 mps 754 mmHg 43%
    17:00 +14°C° 0 mm 1 mps 753 mmHg 45%
    18:00 +13°C° 0 mm 1 mps 754 mmHg 49%
    19:00 +11°C° 0 mm 1 mps 754 mmHg 52%
    20:00 +10°C° 0 mm 1 mps 754 mmHg 56%
    21:00 +10°C° 0 mm 1 mps 754 mmHg 58%
    22:00 +9°C° 0 mm 1 mps 754 mmHg 60%
    23:00 +8°C° 0 mm 0 mps 754 mmHg 62%

    Tomorrow, 21 March, Thursday

    Time Temperature Precipitation Wind Pressure Humidity
    00:00 +8°C° 0 mm 1 mps 754 mmHg 68%
    01:00 +7°C° 0 mm 2 mps 754 mmHg 74%
    02:00 +5°C° 0 mm 3 mps 754 mmHg 80%
    03:00 +5°C° 0 mm 3 mps 754 mmHg 83%
    04:00 +4°C° 0 mm 4 mps 754 mmHg 87%
    05:00 +4°C° 0 mm 4 mps 754 mmHg 91%
    06:00 +4°C° 0 mm 4 mps 754 mmHg 84%
    07:00 +5°C° 0 mm 5 mps 755 mmHg 77%
    08:00 +6°C° 0 mm 5 mps 755 mmHg 70%
    09:00 +7°C° 0 mm 5 mps 755 mmHg 63%
    10:00 +8°C° 0 mm 5 mps 755 mmHg 55%
    11:00 +9°C° 0 mm 5 mps 755 mmHg 48%
    12:00 +9°C° 0 mm 5 mps 754 mmHg 44%
    13:00 +9°C° 0 mm 5 mps 754 mmHg 39%
    14:00 +9°C° 0 mm 5 mps 754 mmHg 35%
    15:00 +9°C° 0 mm 5 mps 754 mmHg 37%
    16:00 +8°C° 0 mm 5 mps 753 mmHg 39%
    17:00 +8°C° 0 mm 5 mps 753 mmHg 40%
    18:00 +7°C° 0 mm 4 mps 753 mmHg 45%
    19:00 +7°C° 0 mm 3 mps 754 mmHg 49%
    20:00 +5°C° 0 mm 3 mps 754 mmHg 54%
    21:00 +5°C° 0 mm 3 mps 754 mmHg 57%
    22:00 +5°C° 0 mm 3 mps 754 mmHg 60%
    23:00 +5°C° 0 mm 3 mps 754 mmHg 63%

    Day after tomorrow, 22 March, Friday

    Time Temperature Precipitation Wind Pressure Humidity
    00:00 +4°C° 0 mm 3 mps 754 mmHg 68%
    01:00 +3°C° 0 mm 3 mps 754 mmHg 73%
    02:00 +2°C° 0 mm 3 mps 754 mmHg 78%
    03:00 +2°C° 0 mm 3 mps 754 mmHg 79%
    04:00 +2°C° 0 mm 3 mps 754 mmHg 80%
    05:00 +1°C° 0 mm 3 mps 754 mmHg 82%
    06:00 +2°C° 0 mm 3 mps 754 mmHg 77%
    07:00 +4°C° 0 mm 4 mps 755 mmHg 73%
    08:00 +5°C° 0 mm 4 mps 755 mmHg 68%
    09:00 +6°C° 0 mm 4 mps 755 mmHg 63%
    10:00 +7°C° 0 mm 4 mps 755 mmHg 58%
    11:00 +8°C° 0 mm 4 mps 754 mmHg 53%
    12:00 +8°C° 0 mm 4 mps 754 mmHg 52%
    13:00 +10°C° 0 mm 4 mps 754 mmHg 51%
    14:00 +10°C° 0 mm 4 mps 753 mmHg 50%
    15:00 +10°C° 0 mm 4 mps 753 mmHg 51%
    16:00 +10°C° 0 mm 4 mps 753 mmHg 53%
    17:00 +8°C° 0 mm 4 mps 753 mmHg 55%
    18:00 +8°C° 0 mm 4 mps 752 mmHg 60%
    19:00 +7°C° 0 mm 4 mps 752 mmHg 64%
    20:00 +7°C° 0 mm 3 mps 752 mmHg 69%
    21:00 +6°C° 0.1 mm 4 mps 752 mmHg 73%
    22:00 +6°C° 0.1 mm 4 mps 752 mmHg 78%
    23:00 +6°C° 0.1 mm 4 mps 752 mmHg 82%

    23 March, Saturday

    Time Temperature Precipitation Wind Pressure Humidity
    00:00 +6°C° 0 mm 4 mps 751 mmHg 84%
    01:00 +6°C° 0 mm 4 mps 751 mmHg 86%
    02:00 +7°C° 0 mm 3 mps 751 mmHg 89%
    03:00 +6°C° 0 mm 4 mps 751 mmHg 89%
    04:00 +6°C° 0 mm 4 mps 751 mmHg 90%
    05:00 +6°C° 0 mm 4 mps 751 mmHg 91%
    06:00 +7°C° 0 mm 4 mps 751 mmHg 90%
    07:00 +7°C° 0 mm 4 mps 751 mmHg 89%
    08:00 +7°C° 0 mm 4 mps 751 mmHg 88%
    09:00 +7°C° 0.2 mm 4 mps 751 mmHg 86%
    10:00 +8°C° 0.2 mm 5 mps 751 mmHg 85%
    11:00 +8°C° 0.2 mm 5 mps 751 mmHg 84%
    12:00 +9°C° 0.1 mm 5 mps 751 mmHg 79%
    13:00 +10°C° 0.1 mm 5 mps 751 mmHg 74%
    14:00 +10°C° 0.1 mm 5 mps 751 mmHg 69%
    15:00 +10°C° 0 mm 5 mps 751 mmHg 68%
    16:00 +11°C° 0 mm 4 mps 750 mmHg 68%
    17:00 +11°C° 0 mm 4 mps 750 mmHg 68%
    18:00 +10°C° 0 mm 3 mps 751 mmHg 74%
    19:00 +9°C° 0 mm 3 mps 751 mmHg 79%
    20:00 +8°C° 0 mm 2 mps 751 mmHg 85%
    21:00 +7°C° 0 mm 2 mps 751 mmHg 87%
    22:00 +7°C° 0 mm 2 mps 751 mmHg 89%
    23:00 +6°C° 0 mm 2 mps 751 mmHg 91%

    24 March, Sunday

    Time Temperature Precipitation Wind Pressure Humidity
    00:00 +6°C° 0 mm 2 mps 751 mmHg 92%
    01:00 +6°C° 0 mm 2 mps 751 mmHg 92%
    02:00 +5°C° 0 mm 2 mps 751 mmHg 93%
    03:00 +4°C° 0 mm 3 mps 750 mmHg 92%
    04:00 +5°C° 0 mm 3 mps 750 mmHg 92%
    05:00 +5°C° 0 mm 3 mps 750 mmHg 91%
    06:00 +6°C° 0 mm 4 mps 750 mmHg 88%
    07:00 +7°C° 0 mm 4 mps 750 mmHg 84%
    08:00 +8°C° 0 mm 5 mps 750 mmHg 81%
    09:00 +9°C° 0 mm 6 mps 749 mmHg 74%
    10:00 +11°C° 0 mm 6 mps 749 mmHg 66%
    11:00 +14°C° 0 mm 7 mps 749 mmHg 59%
    12:00 +14°C° 0 mm 7 mps 749 mmHg 57%
    13:00 +15°C° 0 mm 8 mps 748 mmHg 56%
    14:00 +16°C° 0 mm 8 mps 748 mmHg 54%
    15:00 +14°C° 0.1 mm 7 mps 748 mmHg 60%
    16:00 +13°C° 0.1 mm 6 mps 748 mmHg 65%
    17:00 +11°C° 0.1 mm 6 mps 747 mmHg 71%
    18:00 +10°C° 0 mm 5 mps 748 mmHg 74%
    19:00 +11°C° 0 mm 4 mps 748 mmHg 76%
    20:00 +10°C° 0 mm 2 mps 748 mmHg 78%
    21:00 +9°C° 0 mm 2 mps 748 mmHg 75%
    22:00 +8°C° 0 mm 2 mps 748 mmHg 72%
    23:00 +7°C° 0 mm 2 mps 748 mmHg 70%

    25 March, Monday

    Time Temperature Precipitation Wind Pressure Humidity
    00:00 +6°C° 0 mm 2 mps 748 mmHg 68%
    01:00 +6°C° 0 mm 2 mps 748 mmHg 66%
    02:00 +5°C° 0 mm 2 mps 748 mmHg 65%
    03:00 +6°C° 0 mm 1 mps 748 mmHg 66%
    04:00 +5°C° 0 mm 1 mps 748 mmHg 66%
    05:00 +4°C° 0 mm 0 mps 747 mmHg 67%
    06:00 +5°C° 0 mm 0 mps 747 mmHg 62%
    07:00 +6°C° 0 mm 0 mps 748 mmHg 58%
    08:00 +7°C° 0 mm 0 mps 748 mmHg 53%
    09:00 +9°C° 0 mm 1 mps 747 mmHg 49%
    10:00 +9°C° 0 mm 2 mps 747 mmHg 46%
    11:00 +10°C° 0 mm 3 mps 747 mmHg 43%
    12:00 +10°C° 0 mm 3 mps 746 mmHg 45%
    13:00 +10°C° 0 mm 4 mps 746 mmHg 48%
    14:00 +11°C° 0 mm 4 mps 745 mmHg 51%
    15:00 +10°C° 0 mm 4 mps 745 mmHg 54%
    16:00 +10°C° 0 mm 4 mps 744 mmHg 58%
    17:00 +10°C° 0 mm 4 mps 744 mmHg 61%
    18:00 +8°C° 0 mm 4 mps 743 mmHg 70%
    19:00 +8°C° 0 mm 5 mps 743 mmHg 78%
    20:00 +7°C° 0 mm 5 mps 743 mmHg 87%
    21:00 +7°C° 0.8 mm 5 mps 743 mmHg 86%
    22:00 +7°C° 0.8 mm 5 mps 742 mmHg 85%
    23:00 +7°C° 0.8 mm 5 mps 742 mmHg 84%
    Show more